Location: Centrum přírodních věd - Hvězdárna Jičín
(50.4344°N, 15.3406°E)
Time: 22:08:05
(UTC+01:00)

ISS - Visible Passes

Search period start: 20 March 2019 00:00
Search period end: 30 March 2019 00:00
Orbit: 406 x 411 km, 51.6° (Epoch: 21 March)

Date Brightness Start Highest point End Pass type
(mag) Time Alt. Az. Time Alt. Az. Time Alt. Az.
21 Mar -1.0 20:28:46 10° SW 20:28:53 11° SW 20:28:53 11° SW visible
22 Mar -2.5 19:38:14 10° SSW 19:40:45 23° SSE 19:40:45 23° SSE visible
23 Mar -1.9 18:48:05 10° S 18:50:05 15° SE 18:52:04 10° ESE visible
23 Mar -2.9 20:22:54 10° WSW 20:25:12 39° SW 20:25:12 39° SW visible
24 Mar -3.3 19:32:02 10° SW 19:35:09 42° SSE 19:36:40 25° E visible
24 Mar -1.3 21:08:20 10° W 21:09:25 19° W 21:09:25 19° W visible
25 Mar -4.0 20:17:15 10° WSW 20:20:32 89° NW 20:20:43 80° ENE visible
26 Mar -3.9 19:26:12 10° WSW 19:29:29 71° SSE 19:31:54 17° ENE visible
26 Mar -1.9 21:02:49 10° W 21:04:39 30° WNW 21:04:39 30° WNW visible
27 Mar -3.7 20:11:40 10° W 20:14:58 72° N 20:15:43 48° ENE visible
27 Mar -0.5 21:48:20 10° WNW 21:48:27 11° WNW 21:48:27 11° WNW visible
28 Mar -3.8 19:20:31 10° W 19:23:50 81° N 19:26:44 13° ENE visible
28 Mar -2.5 20:57:13 10° WNW 20:59:28 40° WNW 20:59:28 40° WNW visible
29 Mar -3.7 20:06:04 10° W 20:09:22 70° N 20:10:24 39° ENE visible
29 Mar -0.7 21:42:41 10° WNW 21:43:08 13° W 21:43:08 13° W visible
